Zurück zum Katalog

STARLINK-36924

AktivKommunikationVLEO
NORAD 68054·PAYLOAD·🇺🇸 United States

Gestartet Mar 2, 2026 von Vandenberg Space Force Base

Loading…

Nächste Überflüge (nächste 24 Stunden)

TLE

AktuellSource: CelesTrak SupGP

Epoche: Sep 15, 2026, 03:19 UTC

1 68054C 26041Q   26258.13868056 -.00121840  00000+0 -35969-2 0  2585
2 68054  53.1574 245.0051 0001285  91.7132 247.4984 15.34477103    10

Verfolge STARLINK-36924 in Echtzeit mit AllMySat

Download on the App Store